This is the latest recevied weather packets stored in our database for station/object KG5CK-1. If no packets are shown the sender has not sent any weather packets the latest 10 day(s).
| Time | Temp. | Humidity | Pressure | Rain* | Wind** | Luminosity | Snow |
|---|---|---|---|---|---|---|---|
| 1777480623 | 15° C | 91% | 1011.5 hPa | 0 mm | 0.89 m/s, 31° | - | - |
| 1777480563 | 15° C | 91% | 1011.5 hPa | 0 mm | 0.89 m/s, 31° | - | - |
| 1777480503 | 15.56° C | 91% | 1011.8 hPa | 0 mm | 0.89 m/s, 57° | - | - |
| 1777480443 | 15.56° C | 91% | 1011.8 hPa | 0 mm | 0.89 m/s, 57° | - | - |
| 1777480383 | 15.56° C | 91% | 1011.8 hPa | 0 mm | 0.89 m/s, 57° | - | - |
| 1777480323 | 15.56° C | 91% | 1011.8 hPa | 0 mm | 0.89 m/s, 57° | - | - |
| 1777480263 | 15.56° C | 91% | 1011.8 hPa | 0 mm | 0.89 m/s, 57° | - | - |
| 1777480203 | 15.56° C | 91% | 1011.9 hPa | 0 mm | 1.34 m/s, 66° | - | - |
| 1777480143 | 15.56° C | 91% | 1011.9 hPa | 0 mm | 1.34 m/s, 66° | - | - |
| 1777480083 | 15.56° C | 91% | 1011.9 hPa | 0 mm | 1.34 m/s, 66° | - | - |
| 1777480023 | 15.56° C | 91% | 1011.9 hPa | 0 mm | 1.34 m/s, 66° | - | - |
| 1777479963 | 15.56° C | 91% | 1011.9 hPa | 0 mm | 1.34 m/s, 66° | - | - |
| 1777479903 | 15.56° C | 92% | 1011.7 hPa | 0 mm | 0.45 m/s, 10° | - | - |
| 1777479843 | 15.56° C | 92% | 1011.7 hPa | 0 mm | 0.45 m/s, 10° | - | - |
| 1777479783 | 15.56° C | 92% | 1011.7 hPa | 0 mm | 0.45 m/s, 10° | - | - |
| 1777479723 | 15.56° C | 92% | 1011.7 hPa | 0 mm | 0.45 m/s, 10° | - | - |
| 1777479663 | 15.56° C | 92% | 1011.7 hPa | 0 mm | 0.45 m/s, 10° | - | - |
| 1777479603 | 15.56° C | 92% | 1011.2 hPa | 0 mm | 1.34 m/s, 51° | - | - |
| 1777479543 | 15.56° C | 92% | 1011.2 hPa | 0 mm | 1.34 m/s, 51° | - | - |
| 1777479483 | 15.56° C | 92% | 1011.2 hPa | 0 mm | 1.34 m/s, 51° | - | - |
| 1777479423 | 15.56° C | 92% | 1011.2 hPa | 0 mm | 1.34 m/s, 51° | - | - |
| 1777479363 | 15.56° C | 92% | 1011.2 hPa | 0 mm | 1.34 m/s, 51° | - | - |
| 1777479303 | 15° C | 94% | 1011.4 hPa | 0 mm | 0.89 m/s, 62° | - | - |
| 1777479243 | 15° C | 94% | 1011.4 hPa | 0 mm | 0.89 m/s, 62° | - | - |
| 1777479183 | 15° C | 94% | 1011.4 hPa | 0 mm | 0.89 m/s, 62° | - | - |
* Rain latest hour (hover to see other rain measurements)
** Current wind speed in m/s (hover to see current wind gust speed)